Weather History for York, NE

Change the Weather History Date:

Friday, March 8, 2013

  Actual Average Record
Temperature  
Mean Temperature 42 °F -  
Max Temperature 59 °F 47 °F 80 °F (1977)
Min Temperature 26 °F 24 °F 3 °F (1951)
Degree Days  
Heating Degree Days 22    
Moisture  
Dew Point 35 °F    
Average Humidity 73    
Maximum Humidity 100    
Minimum Humidity 48    
Precipitation  
Precipitation 0.11 in - - ()
Sea Level Pressure  
Sea Level Pressure 29.99 in    
Wind  
Wind Speed 8 mph (SE)    
Max Wind Speed 29 mph    
Max Gust Speed 36 mph    
Visibility 9 miles    
Events Rain , Thunderstorm    
Averages and records for this station are not official NWS values.
T = Trace of Precipitation, MM = Missing Value Source: NWS Daily Summary

Daily Weather History Graph

Daily Weather History Graph

Search for Another Location

Airport:

Trip Planner

Search our weather history database for the weather conditions in past years. The results will help you decide how hot, cold, wet, or windy it might be!

Date:

Astronomy

Mar. 08, 2013 Rise Set
Actual Time 6:53 AM CST 6:29 PM CST
Civil Twilight 6:25 AM CST 6:57 PM CST
Nautical Twilight 5:53 AM CST 7:29 PM CST
Astronomical Twilight 5:22 AM CST 8:01 PM CST
Moon 4:39 AM CST (3/8) 3:25 PM CST (3/8)
Length of Visible Light 12h 31m
Length of Day
11h 36m
Waning Crescent, 11% of the Moon is Illuminated
Mar 8
Waning Crescent
Mar 11
New
Mar 19
First Quarter
Mar 27
Full
Apr 2
Last Quarter

Hourly Weather History & Observations

Time (CST) Temp. Windchill Dew Point Humidity Pressure Visibility Wind Dir Wind Speed Gust Speed Precip Events Conditions
12:15 AM 32.0 °F - 26.6 °F 80% 30.11 in 9.0 mi Calm Calm - N/A   Clear
12:35 AM 32.0 °F 24.8 °F 26.6 °F 80% 30.11 in 10.0 mi ESE 8.1 mph - N/A   Clear
12:55 AM 32.0 °F 27.5 °F 26.6 °F 80% 30.11 in 10.0 mi ESE 4.6 mph - N/A   Clear
1:15 AM 32.0 °F 24.2 °F 26.6 °F 80% 30.11 in 9.0 mi ESE 9.2 mph - N/A   Clear
1:35 AM 32.0 °F - 26.6 °F 80% 30.11 in 9.0 mi Calm Calm - N/A   Clear
1:55 AM 32.0 °F - 26.6 °F 80% 30.11 in 10.0 mi Calm Calm - N/A   Clear
2:15 AM 32.0 °F - 26.6 °F 80% 30.11 in 10.0 mi Calm Calm - N/A   Clear
2:35 AM 32.0 °F 22.5 °F 26.6 °F 80% 30.10 in 10.0 mi SE 12.7 mph - N/A   Clear
2:55 AM 32.0 °F 24.8 °F 26.6 °F 80% 30.10 in 10.0 mi ESE 8.1 mph - N/A   Clear
3:15 AM 30.2 °F - 26.6 °F 86% 30.10 in 10.0 mi Calm Calm - N/A   Clear
3:35 AM 28.4 °F - 26.6 °F 93% 30.09 in 8.0 mi Calm Calm - N/A   Clear
4:15 AM 26.6 °F - 24.8 °F 93% 30.08 in 7.0 mi Calm Calm - N/A   Clear
4:35 AM 28.4 °F - 26.6 °F 93% 30.08 in 8.0 mi Calm Calm - N/A   Clear
4:55 AM 26.6 °F - 24.8 °F 93% 30.08 in 7.0 mi Calm Calm - N/A   Clear
5:15 AM 26.6 °F - 24.8 °F 93% 30.08 in 7.0 mi Calm Calm - N/A   Clear
5:35 AM 26.6 °F - 24.8 °F 93% 30.08 in 7.0 mi Calm Calm - N/A   Clear
5:55 AM 26.6 °F - 24.8 °F 93% 30.08 in 6.0 mi Calm Calm - N/A   Clear
6:15 AM 26.6 °F 17.5 °F 24.8 °F 93% 30.06 in 7.0 mi ESE 9.2 mph - N/A   Clear
6:35 AM 28.4 °F - 26.6 °F 93% 30.08 in 7.0 mi Calm Calm - N/A   Clear
6:55 AM 28.4 °F - 26.6 °F 93% 30.07 in 7.0 mi Calm Calm - N/A   Clear
7:15 AM 30.2 °F - 26.6 °F 86% 30.08 in 7.0 mi Calm Calm - N/A   Clear
7:35 AM 32.0 °F - 26.6 °F 80% 30.08 in 8.0 mi Calm Calm - N/A   Clear
7:55 AM 32.0 °F - 28.4 °F 87% 30.08 in 7.0 mi Calm Calm - N/A   Clear
8:15 AM 32.0 °F 24.2 °F 28.4 °F 87% 30.08 in 8.0 mi SE 9.2 mph - N/A   Clear
8:35 AM 35.6 °F 27.1 °F 28.4 °F 75% 30.07 in 9.0 mi SE 12.7 mph - N/A   Clear
8:55 AM 37.4 °F 29.3 °F 28.4 °F 70% 30.07 in 9.0 mi SE 12.7 mph - N/A   Clear
9:15 AM 37.4 °F 30.3 °F 30.2 °F 75% 30.08 in 9.0 mi SE 10.4 mph - N/A   Clear
9:35 AM 37.4 °F 29.3 °F 30.2 °F 75% 30.07 in 9.0 mi SE 12.7 mph - N/A   Clear
9:55 AM 39.2 °F 32.0 °F 32.0 °F 75% 30.06 in 10.0 mi SE 11.5 mph - N/A Thunderstorm Clear
10:15 AM 39.2 °F 31.2 °F 32.0 °F 75% 30.04 in 9.0 mi SE 13.8 mph - N/A   Clear
10:35 AM 41.0 °F 32.8 °F 32.0 °F 70% 30.03 in 9.0 mi SE 16.1 mph 20.7 mph N/A   Partly Cloudy
10:55 AM 44.6 °F - 32.0 °F 61% 30.06 in 9.0 mi Calm Calm - N/A   Clear
11:15 AM 46.4 °F 41.1 °F 32.0 °F 57% 30.05 in 9.0 mi SSE 11.5 mph - N/A   Clear
11:35 AM 48.2 °F - 32.0 °F 54% 30.04 in 9.0 mi SSE 12.7 mph 16.1 mph N/A   Clear
11:55 AM 50.0 °F - 33.8 °F 54% 30.04 in 9.0 mi SSE 16.1 mph - N/A   Clear
12:15 PM 50.0 °F - 35.6 °F 58% 30.05 in 10.0 mi SSE 11.5 mph 18.4 mph N/A   Clear
12:35 PM 51.8 °F - 35.6 °F 54% 30.03 in 9.0 mi SE 12.7 mph - N/A   Clear
12:55 PM 53.6 °F - 35.6 °F 51% 30.01 in 9.0 mi SE 11.5 mph - N/A   Clear
1:15 PM 53.6 °F - 35.6 °F 51% 30.00 in 9.0 mi SE 15.0 mph - N/A   Clear
1:35 PM 55.4 °F - 37.4 °F 51% 29.99 in 10.0 mi SSE 12.7 mph - N/A   Clear
1:55 PM 55.4 °F - 37.4 °F 51% 29.98 in 10.0 mi SE 15.0 mph - N/A   Clear
2:15 PM 55.4 °F - 37.4 °F 51% 29.96 in 9.0 mi SE 18.4 mph 23.0 mph N/A   Clear
2:35 PM 57.2 °F - 37.4 °F 48% 29.95 in 10.0 mi SE 15.0 mph - N/A   Clear
2:55 PM 57.2 °F - 37.4 °F 48% 29.95 in 10.0 mi SE 13.8 mph - N/A   Clear
3:15 PM 57.2 °F - 37.4 °F 48% 29.94 in 10.0 mi SE 16.1 mph 27.6 mph N/A   Clear
3:35 PM 57.2 °F - 37.4 °F 48% 29.92 in 10.0 mi SE 19.6 mph - N/A   Clear
3:55 PM 59.0 °F - 39.2 °F 48% 29.91 in 10.0 mi SE 18.4 mph 23.0 mph N/A   Scattered Clouds
4:15 PM 59.0 °F - 39.2 °F 48% 29.90 in 10.0 mi SE 16.1 mph 21.9 mph N/A   Mostly Cloudy
4:35 PM 57.2 °F - 39.2 °F 51% 29.89 in 10.0 mi SE 16.1 mph - N/A   Overcast
4:55 PM 57.2 °F - 39.2 °F 51% 29.89 in 10.0 mi SE 16.1 mph 21.9 mph N/A   Overcast
5:15 PM 57.2 °F - 39.2 °F 51% 29.88 in 10.0 mi SE 15.0 mph - N/A   Overcast
5:35 PM 57.2 °F - 41.0 °F 55% 29.88 in 10.0 mi SE 17.3 mph 24.2 mph N/A   Overcast
5:55 PM 55.4 °F - 41.0 °F 58% 29.88 in 10.0 mi SE 13.8 mph - N/A   Overcast
6:15 PM 55.4 °F - 41.0 °F 58% 29.88 in 10.0 mi SE 19.6 mph 23.0 mph N/A   Overcast
6:35 PM 55.4 °F - 41.0 °F 58% 29.88 in 10.0 mi SE 19.6 mph 25.3 mph N/A   Overcast
6:55 PM 55.4 °F - 42.8 °F 63% 29.88 in 10.0 mi SE 16.1 mph 21.9 mph N/A   Overcast
7:15 PM 53.6 °F - 42.8 °F 67% 29.87 in 10.0 mi SE 17.3 mph 23.0 mph N/A   Overcast
7:35 PM 53.6 °F - 44.6 °F 72% 29.87 in 10.0 mi ESE 19.6 mph - N/A   Overcast
7:55 PM 53.6 °F - 44.6 °F 72% 29.88 in 10.0 mi East 13.8 mph - N/A   Overcast
8:15 PM 53.6 °F - 44.6 °F 72% 29.87 in 10.0 mi East 16.1 mph 20.7 mph N/A   Overcast
8:35 PM 53.6 °F - 44.6 °F 72% 29.87 in 10.0 mi East 16.1 mph 20.7 mph N/A   Overcast
8:55 PM 51.8 °F - 44.6 °F 76% 29.87 in 10.0 mi East 12.7 mph - N/A   Overcast
9:15 PM 50.0 °F - 41.0 °F 71% 29.87 in 9.0 mi SE 15.0 mph - N/A Rain Light Rain
9:35 PM 48.2 °F - 41.0 °F 76% 29.87 in 10.0 mi SE 12.7 mph - N/A   Mostly Cloudy
9:55 PM 48.2 °F - 41.0 °F 76% 29.85 in 10.0 mi SE 17.3 mph 26.5 mph N/A   Mostly Cloudy
10:15 PM 48.2 °F - 46.4 °F 93% 29.86 in 5.0 mi South 13.8 mph 19.6 mph 0.02 in Rain Light Rain
10:35 PM 48.2 °F - 48.2 °F 100% 29.84 in 3.0 mi SSE 20.7 mph 29.9 mph 0.03 in Rain Light Rain
10:55 PM 48.2 °F - 48.2 °F 100% 29.84 in 2.5 mi SSE 28.8 mph 35.7 mph 0.09 in Rain Light Rain
11:15 PM 48.2 °F - 48.2 °F 100% 29.85 in 4.0 mi SSE 18.4 mph 29.9 mph 0.01 in Rain Light Rain
11:35 PM 48.2 °F - 46.4 °F 93% 29.85 in 3.0 mi SSE 18.4 mph 25.3 mph 0.02 in Rain Light Rain
11:55 PM 46.4 °F 38.5 °F 46.4 °F 100% 29.83 in 4.0 mi SSE 21.9 mph 27.6 mph 0.02 in   Mist